{"data":{"norad_id":48148,"epoch":"2026-09-20T05:13:42.286656Z","epoch_age_seconds":58023,"freshness":"FRESH","line1":"1 48148U 21027BJ  26263.21785054 -.00000037  00000+0  10567-4 0  9991","line2":"2 48148  53.1599 340.4129 0001380  87.8395 272.2765 15.31699570302309","mean_motion":15.3169957,"eccentricity":0.000138,"inclination_deg":53.1599,"raan_deg":340.4129,"arg_perigee_deg":87.8395,"mean_anomaly_deg":272.2765,"bstar":1.0567e-5,"rev_number":30230,"period_min":94.013214353778,"perigee_km":469.79613183134,"apogee_km":471.6864222358,"semimajor_km":6848.8782770336,"source":"CELESTRAK","updated_at":"2026-09-20T09:00:38.926233Z"}}